Probability
0 0 0 0 0 0 0 0 0 0 0 0 0 0 0 0 0 0 0 0 0 0 0 0 0 0 0 0 0 0 0 0 0 0 0 0 0 0 0 0 0 0 0
0 0 0 0 0 0 0 0 0 0 0 0 0 0 0 0 0 0 0 0 0 0 0 0 0 0 0 0 0 0 0 0 0 0 0 0 0 0 0 0 0 0 0
0 0 0 0 0 0 0 0 0 0 0 0 0 0 0 0 0 0 0 0 0 0 0 0 0 0 0 0 0 0 0 0 0 0 0 0 0 0 0 0 0 0 0
0 0 0 0 0 0 0 0 0 0 0 0 0 0 0 0 0 0 0 0 0 0 0 0 0 0 0 0 0 0 0 0 0 0 0 0 0 0 0 0 0 0 0
0 0 0 0 0 0 0 0 0 0 0 0 0 0 0 0 0 0 0 0 0 0 0 0 0 0 0 0 0 0 0 0 0 0 0 0 0 0 0 0 0 0 0
0 0 0 0 0 0 0 0 0 0 0 0 0 0 0 0 0 0 0 0 0 0 0 0 0 0 0 0 0 0 0 0 0 0 0 0 0 0 0 0 0 0 0
0 0 0 0 0 0 0 0 0 0 0 0 0 0 0 0 0 0 0 0 0 0 0 0 0 0 0 0 0 0 0 0 0 0 0 0 0 0 0 0 0 0 0
0 0 0 0 0 0 0 0 0 0 0 0 0 0 0 0 0 0 0 0 0 0 0 0 0 0 0 0 0 0 0 0 0 0 0 0 0 0 0 0 0 0 0
0 0 0 0 0 0 0 0 0 0 0 0 0 0 0 0 0 0 0 0 0 0 0 0 0 0 0 0 0 0 0 0 0 0 0 0 0 0 0 0 0 0 0
0 0 0 0 0 0 0 0 0 0 0 0 0 0 0 0 0 0 0 0 0 0 0 0 0 0 0 0 0 0 0 0 0 0 0 0 0 0 0 0 0 0 0
0 0 0 0 0 0 0 0 0 0 0 0 0 0 0 0 0 0 0 0 0 0 0 0 0 0 0 0 0 0 0 0 0 0 0 0 0 0 0 0 0 0 0
0 0 0 0 0 0 0 0 0 0 0 0 0 0 0 0 0 0 0 0 0 0 0 0 0 0 0 0 0 0 0 0 0 0 0 0 0 0 0 0 0 0 0
0 0 0 0 0 0 0 0 0 0 0 0 0 0 0 0 0 0 0 0 0 0 0 0 0 0 0 0 0 0 0 0 0 0 0 0 0 0 0 0 0 0 0
0 0 0 0 0 0 0 0 0 0 0 0 0 0 0 0 0 0 0 0 0 0 0 0 0 0 0 0 0 0 0 0 0 0 0 0 0 0 0 0 0 0 0
0 0 0 0 0 0 0 0 0 0 0 0 0 0 0 0 0 0 0 0 0 0 0 0 0 0 0 0 0 0 0 0 0 0 0 0 0 0 0 0 0 0 0
0 0 0 0 0 0 0 0 0 0 0 0 0 0 0 0 0 0 0 0 0 0 0 0 0 0 0 0 0 0 0 0 0 0 0 0 0 0 0 0 0 0 0
0 0 0 0 0 0 0 0 0 0 0 0 0 0 0 0 0 0 0 0 0 0 0 0 0 0 0 0 0 0 0 0 0 0 0 0 0 0 0 0 0 0 0
0 0 0 0 0 0 0 0 0 0 0 0 0 0 0 0 0 0 0 0 0 0 0 0 0 0 0 0 0 0 0 0 0 0 0 0 0 0 0 0 0 0 0
0 0 0 0 0 0 0 0 0 0 0 0 0 0 0 0 0 0 0 0 0 0 0 0 0 0 0 0 0 0 0 0 0 0 0 0 0 0 0 0 0 0 0
0 0 0 0 0 0 0 0 0 0 0 0 0 0 0 0 0 0 0 0 0 0 0 0 0 0 0 0 0 0 0 0 0 0 0 0 0 0 0 0 0 0 0
0 0 0 0 0 0 0 0 0 0 0 0 0 0 0 0 0 0 0 0 0 0 0 0 0 0 0 0 0 0 0 0 0 0 0 0 0 0 0 0 0 0 0
0 0 0 0 0 0 0 0 0 0 0 0 0 0 0 0 0 0 0 0 0 0 0 0 0 0 0 0 0 0 0 0 0 0 0 0 0 0 0 0 0 0 0
0 0 0 0 0 0 0 0 0 0 0 0 0 0 0 0 0 0 0 0 0 0 0 0 0 0 0 0 0 0 0 0 0 0 0 0 0 0 0 0 0 0 0
0 0 0 0 0 0 0 0 0 0 0 0 0 0 0 0 0 0 0 0 0 0 0 0 0 0 0 0 0 0 0 0 0 0 0 0 0 0 0 0 0 0 0
0 0 0 0 0 0 0 0 0 0 0 0 0 0 0 0 0 0 0 0 0 0 0 0 0 0 0 0 0 0 0 0 0 0 0 0 0 0 0 0 0 0 0
0 0 0 0 0 0 0 0 0 0 0 0 0 0 0 0 0 0 0 0 0 0 0 0 0 0 0 0 0 0 0 0 0 0 0 0 0 0 0 0 0 0 0
Height
5881 5881 5881 5881 5881 5881 5881 5881 5881 5881 5881 5880 5880 5880 5880 5880 5880 5879 5879 5879 5879 5878 5878 5878 5878 5878 5878 5878 5878 5878 5878 5878 5878 5878 5879 5879 5879 5879 5879 5880 5880 5880 5880
5880 5880 5880 5880 5880 5879 5879 5879 5879 5879 5878 5878 5878 5878 5878 5877 5877 5877 5876 5876 5876 5875 5875 5875 5875 5875 5875 5875 5875 5875 5875 5875 5875 5875 5876 5876 5876 5876 5876 5876 5877 5877 5877
5879 5879 5879 5878 5878 5878 5877 5877 5877 5877 5876 5876 5876 5876 5875 5875 5875 5874 5874 5874 5873 5873 5873 5872 5872 5872 5872 5872 5872 5872 5872 5872 5872 5872 5872 5872 5872 5872 5872 5873 5873 5873 5873
5878 5877 5877 5877 5876 5876 5876 5875 5875 5875 5874 5874 5874 5874 5873 5873 5872 5872 5871 5871 5871 5870 5870 5869 5869 5869 5869 5869 5868 5868 5868 5868 5868 5868 5868 5868 5868 5868 5868 5868 5869 5869 5869
5877 5876 5876 5875 5875 5874 5874 5873 5873 5873 5873 5872 5872 5872 5871 5871 5870 5870 5869 5869 5868 5868 5867 5867 5866 5866 5866 5865 5865 5865 5864 5864 5864 5864 5864 5864 5864 5863 5863 5864 5864 5864 5864
5875 5875 5874 5873 5873 5872 5872 5871 5871 5871 5871 5870 5870 5870 5869 5869 5868 5868 5867 5866 5865 5865 5864 5864 5863 5863 5862 5862 5861 5861 5861 5860 5860 5860 5860 5859 5859 5859 5859 5858 5858 5858 5859
5873 5872 5872 5871 5871 5870 5870 5870 5869 5869 5869 5869 5868 5868 5867 5867 5866 5865 5865 5864 5863 5862 5861 5861 5860 5859 5859 5858 5858 5857 5857 5856 5856 5855 5855 5855 5854 5854 5853 5853 5853 5853 5853
5870 5870 5869 5869 5869 5868 5868 5867 5867 5867 5867 5866 5866 5866 5865 5864 5864 5863 5862 5861 5860 5860 5859 5858 5857 5856 5855 5854 5854 5853 5852 5851 5851 5850 5850 5849 5848 5848 5847 5847 5847 5846 5846
5867 5867 5867 5866 5866 5866 5865 5865 5865 5865 5865 5864 5864 5863 5863 5862 5861 5860 5859 5858 5857 5856 5855 5854 5853 5852 5851 5850 5849 5848 5847 5846 5845 5845 5844 5843 5842 5841 5840 5840 5840 5839 5839
5864 5864 5864 5864 5863 5863 5863 5863 5862 5862 5862 5861 5861 5860 5860 5859 5858 5857 5856 5855 5854 5853 5852 5851 5849 5848 5847 5846 5845 5843 5842 5841 5840 5839 5837 5836 5835 5834 5833 5832 5832 5831 5831
5862 5861 5861 5860 5860 5860 5860 5860 5859 5859 5859 5858 5858 5857 5856 5856 5855 5854 5852 5851 5850 5849 5847 5846 5845 5844 5842 5841 5839 5838 5837 5835 5834 5832 5831 5830 5828 5827 5826 5825 5824 5823 5822
5859 5858 5857 5857 5857 5857 5856 5856 5856 5855 5855 5855 5854 5853 5852 5851 5850 5849 5848 5847 5846 5844 5843 5841 5840 5838 5837 5836 5834 5832 5831 5829 5828 5826 5824 5822 5821 5819 5818 5816 5815 5814 5813
5856 5854 5854 5853 5853 5853 5852 5852 5852 5851 5851 5850 5849 5849 5848 5847 5846 5844 5843 5842 5841 5839 5838 5836 5834 5833 5831 5830 5828 5826 5824 5822 5821 5819 5817 5815 5813 5811 5809 5807 5806 5804 5803
5852 5851 5850 5849 5849 5848 5848 5847 5847 5846 5846 5845 5844 5843 5842 5841 5840 5839 5838 5836 5835 5833 5832 5830 5828 5827 5825 5823 5821 5819 5817 5815 5813 5811 5809 5807 5804 5802 5800 5798 5796 5794 5793
5847 5846 5845 5845 5844 5843 5843 5842 5842 5841 5840 5839 5839 5838 5836 5835 5834 5833 5831 5830 5828 5826 5825 5823 5821 5819 5817 5816 5814 5812 5810 5807 5805 5803 5800 5798 5795 5792 5790 5787 5785 5783 5782
5841 5841 5840 5839 5838 5837 5837 5836 5835 5834 5834 5833 5832 5831 5830 5829 5827 5825 5824 5822 5820 5819 5817 5816 5814 5812 5809 5807 5805 5803 5801 5799 5796 5793 5790 5788 5785 5782 5779 5776 5774 5772 5770
5835 5834 5834 5833 5833 5832 5830 5829 5828 5827 5826 5826 5824 5823 5822 5821 5819 5818 5816 5814 5812 5810 5809 5807 5805 5803 5800 5798 5795 5793 5791 5788 5786 5783 5780 5777 5774 5771 5768 5765 5762 5759 5757
5829 5828 5827 5826 5826 5825 5824 5822 5821 5820 5819 5818 5816 5815 5814 5812 5810 5809 5807 5805 5802 5801 5799 5797 5795 5793 5790 5788 5785 5782 5780 5778 5775 5772 5769 5765 5762 5759 5755 5752 5749 5746 5743
5823 5821 5820 5818 5818 5817 5816 5815 5814 5813 5812 5809 5807 5806 5804 5802 5800 5798 5797 5795 5792 5790 5789 5786 5784 5781 5779 5776 5773 5771 5769 5766 5763 5760 5757 5753 5750 5746 5742 5739 5735 5732 5729
5817 5816 5814 5812 5810 5808 5807 5807 5806 5805 5803 5801 5800 5797 5795 5793 5790 5788 5787 5784 5781 5779 5777 5775 5772 5770 5767 5763 5760 5759 5756 5753 5751 5748 5743 5740 5737 5733 5729 5725 5721 5718 5715
5811 5810 5807 5805 5803 5801 5799 5797 5796 5795 5794 5793 5791 5789 5786 5783 5780 5778 5776 5773 5770 5768 5765 5763 5760 5757 5754 5749 5746 5745 5743 5740 5738 5734 5729 5726 5723 5718 5715 5711 5707 5704 5701
5806 5803 5801 5799 5796 5794 5791 5789 5787 5785 5784 5782 5780 5778 5775 5772 5770 5767 5765 5762 5758 5755 5753 5750 5746 5743 5740 5736 5732 5728 5727 5728 5724 5719 5716 5712 5708 5704 5700 5696 5692 5689 5686
5799 5796 5794 5791 5788 5786 5783 5781 5778 5776 5774 5772 5769 5766 5764 5762 5759 5756 5753 5749 5746 5742 5739 5736 5732 5728 5725 5722 5717 5712 5709 5709 5708 5707 5703 5699 5694 5690 5686 5681 5677 5674 5671
5790 5788 5785 5783 5780 5777 5775 5772 5769 5767 5764 5761 5759 5756 5753 5750 5747 5743 5740 5736 5732 5729 5725 5721 5717 5713 5708 5706 5702 5698 5694 5690 5687 5687 5688 5684 5679 5675 5671 5666 5662 5659 5655
5782 5779 5776 5773 5771 5768 5765 5763 5760 5757 5754 5751 5748 5745 5741 5737 5734 5730 5726 5722 5718 5714 5711 5706 5701 5697 5693 5689 5686 5682 5678 5674 5669 5665 5666 5666 5662 5659 5654 5650 5646 5643 5639
5773 5770 5767 5765 5762 5759 5756 5753 5750 5746 5743 5740 5736 5733 5729 5725 5721 5716 5712 5708 5704 5700 5695 5691 5685 5681 5677 5673 5668 5664 5660 5657 5654 5648 5644 5644 5643 5641 5636 5633 5630 5626 5621
Wind_Speed
6 6 6 6 6 6 7 7 7 8 8 9 10 11 11 12 12 13 13 13 13 13 13 13 13 13 13 13 13 13 14 14 14 15 15 15 16 16 17 17 17 18 18
5 5 5 6 6 6 7 7 8 9 9 10 10 11 11 11 11 12 12 12 13 13 13 13 13 13 13 13 13 14 15 15 16 16 17 17 18 18 19 19 19 20 20
5 5 5 6 6 6 7 8 9 9 10 10 10 10 10 10 11 11 11 12 12 12 12 13 13 13 13 14 15 15 16 17 17 18 19 19 20 20 21 21 22 22 22
5 6 6 6 7 7 8 9 9 9 9 9 9 9 10 10 10 11 11 11 11 12 12 13 13 13 14 14 15 16 17 17 18 19 20 21 21 22 23 23 24 24 25
6 7 7 8 8 8 8 8 8 8 8 8 9 9 9 10 10 10 11 11 12 12 13 13 14 14 14 15 16 16 17 18 19 20 20 21 22 24 24 25 26 27 27
8 8 9 9 8 8 8 8 8 8 8 8 8 9 9 10 10 10 11 12 12 12 13 13 14 14 15 16 16 17 18 19 19 20 21 22 23 24 25 26 27 28 29
10 9 9 9 9 9 9 8 8 8 8 8 8 9 9 10 10 10 11 11 12 12 13 13 14 15 15 16 17 18 19 20 21 22 23 23 24 25 26 27 28 29 30
11 10 10 10 10 9 9 8 8 8 8 9 9 9 9 10 10 10 11 11 11 12 13 13 14 15 16 17 17 18 19 20 21 23 24 25 26 27 28 29 29 30 31
12 11 10 10 10 10 9 9 9 9 9 9 9 9 10 10 10 11 11 11 12 13 13 14 14 15 16 17 18 19 20 21 23 24 25 26 27 29 30 31 32 32 33
13 12 11 11 11 11 11 11 10 10 10 10 11 11 11 11 12 12 13 13 14 14 15 16 16 17 18 19 20 21 22 23 24 25 26 27 29 30 31 33 34 35 36
13 13 12 12 12 12 12 12 12 12 12 13 13 13 13 14 14 15 15 16 16 17 18 19 19 20 21 22 23 24 25 25 26 27 28 29 30 31 33 34 35 37 38
14 14 14 14 14 14 14 15 15 15 15 15 15 16 16 17 17 18 18 19 19 20 21 22 23 24 25 25 26 27 28 29 30 31 32 33 34 34 35 36 37 38 40
15 16 17 16 16 16 17 17 18 18 18 18 19 19 19 20 21 21 22 22 23 24 24 25 26 27 28 29 30 31 32 33 34 35 36 37 38 38 39 39 40 41 42
17 18 19 19 19 19 20 20 21 21 22 22 22 22 23 24 24 25 25 26 27 28 28 29 30 31 32 33 33 34 35 36 37 38 39 40 41 42 43 43 44 44 44
19 19 20 20 21 22 22 23 24 25 26 26 26 26 27 28 28 29 29 30 31 31 32 32 33 34 35 36 37 38 39 39 41 42 43 44 45 46 47 47 48 48 48
21 21 22 22 23 24 25 26 27 28 29 30 30 30 31 31 32 33 34 34 35 36 36 36 37 38 39 40 41 42 43 43 44 45 47 47 48 49 50 51 52 52 52
23 24 24 25 25 26 28 29 30 31 32 33 34 35 35 35 36 37 38 39 40 40 40 41 41 42 43 44 45 46 47 47 48 49 50 51 52 52 53 54 55 55 55
24 25 27 27 28 29 30 31 32 33 34 35 37 38 39 40 41 42 42 43 44 44 44 45 46 46 47 48 49 50 50 51 52 52 53 54 55 55 56 56 57 57 57
24 25 27 29 30 31 32 33 34 35 36 38 39 41 43 44 45 46 46 47 48 48 48 49 50 51 51 52 54 54 54 55 55 56 56 57 57 57 58 58 58 58 58
23 25 27 28 30 32 33 34 35 36 37 39 41 43 45 46 48 49 50 51 52 53 53 54 54 55 55 56 58 57 58 58 58 58 59 59 59 59 59 59 59 59 59
24 25 26 28 30 32 34 35 36 37 38 39 40 42 44 46 49 51 52 53 55 56 57 57 58 58 59 61 62 61 61 61 60 60 61 61 60 60 60 59 60 60 61
25 26 27 29 30 32 34 35 36 37 38 39 41 42 44 47 49 51 53 55 57 59 59 60 61 62 62 64 65 65 64 62 61 62 62 61 61 61 60 60 60 61 61
27 28 29 30 32 33 34 36 37 38 39 41 43 45 46 48 50 52 54 56 58 60 62 63 64 65 65 66 67 68 68 66 65 63 62 61 61 61 61 62 62 61 61
30 31 31 32 33 34 35 37 38 39 41 43 45 46 48 50 52 54 56 58 60 62 63 65 66 67 68 68 68 69 70 70 70 67 63 63 62 61 61 62 63 62 62
31 32 32 33 34 35 36 38 39 41 42 44 46 48 51 53 55 57 59 60 62 63 64 66 68 69 70 70 70 70 71 71 71 71 68 65 64 63 62 63 63 63 63
31 32 33 34 34 36 37 38 40 42 43 45 47 49 51 53 56 58 60 62 64 65 66 68 69 71 71 71 72 72 72 72 71 72 71 69 67 65 65 65 64 63 64
Wind_Direction
245 245 250 255 262 268 272 276 278 280 282 283 282 281 280 279 278 278 278 277 276 274 273 271 270 268 266 264 262 261 260 259 258 257 255 253 252 251 251 250 250 249 248
240 245 250 256 262 267 274 279 283 284 285 285 284 284 283 282 280 279 279 279 278 277 276 274 272 270 269 267 265 264 263 262 261 260 259 258 257 256 255 254 253 252 252
243 248 252 258 264 272 279 284 287 287 287 287 286 286 286 286 286 284 283 282 281 280 278 277 275 274 272 270 269 268 266 265 264 263 262 262 261 260 258 257 256 255 255
250 254 258 264 269 276 281 286 288 288 288 288 288 289 290 290 291 290 289 287 286 285 284 282 280 278 276 274 272 271 269 268 267 266 265 264 263 262 261 260 259 258 258
260 264 268 271 274 279 284 287 287 287 287 288 289 290 291 292 292 292 292 291 290 289 288 287 285 283 281 278 276 275 274 272 270 269 267 266 265 264 263 262 261 260 260
269 271 273 274 277 280 284 285 285 286 286 287 289 290 292 293 293 293 293 293 292 292 291 290 289 287 285 283 282 280 279 277 275 273 271 269 268 266 265 264 263 262 261
274 274 275 276 277 279 281 281 282 283 284 286 288 289 290 291 291 291 292 292 292 292 293 293 292 291 290 289 288 286 284 282 280 278 276 274 272 270 268 267 265 264 263
275 274 273 274 275 276 277 275 276 278 281 284 285 286 287 288 290 290 291 292 292 294 295 295 295 295 294 294 293 291 290 288 286 283 281 279 277 274 272 270 268 267 265
274 273 270 271 272 273 272 271 272 274 277 280 283 285 287 288 290 291 293 294 295 297 297 298 299 299 300 299 298 297 296 294 292 290 287 285 282 279 277 274 272 270 268
272 273 270 268 269 269 269 269 269 272 275 277 280 283 284 287 288 290 292 294 295 297 298 299 300 301 301 301 301 301 300 299 298 296 294 291 289 286 282 279 276 274 272
271 272 270 268 268 268 268 268 269 270 273 275 277 280 282 284 286 288 291 292 293 295 296 297 298 299 299 299 299 299 299 299 299 298 297 295 293 291 288 284 281 278 275
269 270 269 268 267 267 267 268 268 269 271 272 274 277 280 282 284 286 288 289 291 292 293 294 295 295 296 296 296 296 297 297 297 297 296 296 294 293 291 288 286 282 279
268 269 269 269 267 267 267 268 269 269 269 270 272 275 278 280 281 283 285 287 288 289 290 291 292 293 293 294 294 294 295 295 295 295 295 295 294 293 291 290 288 285 282
268 269 271 270 269 268 267 267 268 268 268 269 271 273 275 277 279 281 283 284 285 286 288 289 290 290 291 291 292 292 293 293 294 294 294 293 293 293 291 290 288 286 284
272 271 271 271 270 269 268 267 267 267 268 268 269 270 272 274 277 279 281 282 283 285 286 287 288 289 289 290 290 291 291 292 292 293 293 293 293 292 291 290 289 287 285
274 271 270 269 269 269 268 268 268 268 268 268 268 269 270 272 274 276 279 280 281 283 284 285 286 287 288 289 289 289 290 290 291 291 292 292 292 291 291 290 289 287 285
275 273 271 269 268 267 267 267 268 268 269 268 268 269 270 270 272 274 276 277 279 280 282 283 284 285 286 287 288 288 289 289 290 290 291 291 291 290 290 289 288 287 286
277 275 274 272 270 267 266 266 266 267 268 268 268 268 269 269 270 272 273 275 276 279 280 281 283 284 285 286 286 287 288 289 289 290 290 290 290 290 289 289 288 287 286
281 279 277 276 274 272 270 268 268 267 267 267 267 268 268 269 271 272 273 274 276 277 278 280 281 283 284 285 285 286 287 288 288 289 289 289 290 290 289 289 288 287 286
284 281 279 278 276 275 274 272 270 269 269 269 270 270 271 272 272 273 273 274 275 277 278 279 281 283 284 284 284 285 286 287 288 289 289 289 290 290 289 288 288 286 285
285 283 282 280 278 277 277 275 274 273 272 272 272 272 272 272 272 272 273 274 276 277 279 280 282 282 283 283 285 285 285 287 288 288 288 289 290 289 289 288 287 286 285
287 285 283 281 280 278 277 277 276 276 275 274 273 272 271 272 273 275 276 277 278 279 280 281 282 282 283 284 285 285 285 286 287 287 288 289 289 288 288 287 286 285 284
288 286 285 283 281 280 278 278 277 277 277 276 276 275 275 275 276 276 277 278 278 279 280 281 281 282 282 283 284 285 285 286 285 285 286 286 286 286 286 285 285 284 284
291 289 287 286 284 283 282 281 280 280 279 278 278 278 277 277 276 277 277 277 278 278 279 280 281 281 282 282 283 284 285 285 286 286 285 284 284 284 284 284 283 283 283
292 291 290 289 288 287 286 285 284 283 283 282 281 280 279 279 279 278 278 277 278 278 279 279 280 280 281 282 283 283 283 284 285 286 285 284 283 283 283 282 282 283 283
294 293 293 293 292 292 291 289 288 287 286 285 285 284 283 282 281 281 280 279 279 279 279 279 279 280 280 281 282 282 283 283 284 284 284 284 284 283 282 282 283 283 282